Weather History for Asheville, NC

Change the Weather History Date:

Friday, February 20, 2009

  Actual Average Record
Temperature  
Mean Temperature 28 °F 41 °F  
Max Temperature 38 °F 52 °F 75 °F (1939)
Min Temperature 17 °F 31 °F 10 °F (1979)
Degree Days  
Heating Degree Days 37 24  
Month to date heating degree days 506 509  
Since 1 July heating degree days 3094 3036  
Cooling Degree Days 0 0  
Month to date cooling degree days 0 0  
Year to date cooling degree days 0 0  
Moisture  
Dew Point 6 °F    
Average Humidity 43    
Maximum Humidity 67    
Minimum Humidity 19    
Precipitation  
Precipitation 0.00 in 0.14 in 1.81 in (1954)
Month to date precipitation 1.01 2.69  
Year to date precipitation 3.41 6.36  
Snow  
Snow 0.00 in 0.00 in 4.00 in (1947)
Month to date snowfall T 1.6  
Since 1 July snowfall 1.0 6.7  
Snow Depth 0.00 in    
Sea Level Pressure  
Sea Level Pressure 30.12 in    
Wind  
Wind Speed 11 mph (NNW)    
Max Wind Speed 22 mph    
Max Gust Speed 29 mph    
Visibility 10 miles    
Events      
T = Trace of Precipitation, MM = Missing Value Source: NWS Daily Summary

Daily Weather History Graph

Daily Weather History Graph

Search for Another Location

Airport:

Trip Planner

Search our weather history database for the weather conditions in past years. The results will help you decide how hot, cold, wet, or windy it might be!

Date:

Astronomy

Feb. 20, 2009 Rise Set
Actual Time 7:10 AM EST 6:17 PM EST
Civil Twilight 6:44 AM EST 6:43 PM EST
Nautical Twilight 6:15 AM EST 7:12 PM EST
Astronomical Twilight 5:45 AM EST 7:42 PM EST
Moon 4:32 AM EST (2/20) 2:13 PM EST (2/20)
Length of Visible Light 11h 58m
Length of Day
11h 06m
Waning Crescent, 17% of the Moon is Illuminated
Feb 20
Waning Crescent
Feb 24
New
Mar 4
First Quarter
Mar 10
Full
Mar 18
Last Quarter

Hourly Weather History & Observations

Time (EST) Temp. Windchill Dew Point Humidity Pressure Visibility Wind Dir Wind Speed Gust Speed Precip Events Conditions
12:54 AM 24.1 °F 11.0 °F 9.0 °F 53% 30.01 in 10.0 mi North 16.1 mph 23.0 mph N/A   Clear
1:54 AM 21.9 °F 8.7 °F 10.0 °F 60% 30.02 in 10.0 mi North 15.0 mph 23.0 mph N/A   Clear
2:54 AM 21.0 °F 8.1 °F 9.0 °F 60% 30.02 in 10.0 mi NNW 13.8 mph 24.2 mph N/A   Clear
3:54 AM 19.9 °F 8.6 °F 9.0 °F 62% 30.04 in 10.0 mi NNW 10.4 mph - N/A   Clear
4:54 AM 19.0 °F 7.5 °F 9.0 °F 65% 30.06 in 10.0 mi NNW 10.4 mph - N/A   Clear
5:54 AM 19.0 °F 6.8 °F 9.0 °F 65% 30.08 in 10.0 mi NNW 11.5 mph - N/A   Clear
6:54 AM 17.1 °F 6.6 °F 9.0 °F 71% 30.10 in 10.0 mi NNW 8.1 mph - N/A   Clear
7:54 AM 19.0 °F 11.1 °F 9.0 °F 65% 30.12 in 10.0 mi North 5.8 mph - N/A   Clear
8:54 AM 21.0 °F 9.9 °F 8.1 °F 57% 30.14 in 10.0 mi NNW 10.4 mph - N/A   Clear
9:54 AM 23.0 °F 12.4 °F 6.1 °F 48% 30.15 in 10.0 mi North 10.4 mph - N/A   Clear
10:54 AM 27.0 °F 18.0 °F 6.1 °F 41% 30.16 in 10.0 mi NNW 9.2 mph - N/A   Clear
11:54 AM 30.0 °F 21.1 °F 3.9 °F 33% 30.16 in 10.0 mi North 10.4 mph 18.4 mph N/A   Clear
12:54 PM 33.1 °F 24.4 °F 3.0 °F 28% 30.14 in 10.0 mi North 11.5 mph - N/A   Clear
1:54 PM 35.1 °F 29.3 °F 1.0 °F 24% 30.12 in 10.0 mi Variable 6.9 mph - N/A   Clear
2:54 PM 37.0 °F 28.5 °F -0.9 °F 20% 30.10 in 10.0 mi North 13.8 mph 19.6 mph N/A   Clear
3:54 PM 37.9 °F 30.9 °F -2.0 °F 18% 30.11 in 10.0 mi NNW 10.4 mph - N/A   Clear
4:54 PM 37.0 °F 28.5 °F -0.9 °F 20% 30.12 in 10.0 mi NNW 13.8 mph - N/A   Clear
5:54 PM 34.0 °F 24.2 °F 1.9 °F 26% 30.13 in 10.0 mi NNW 15.0 mph - N/A   Clear
6:54 PM 30.9 °F 20.2 °F 5.0 °F 33% 30.17 in 10.0 mi NNW 15.0 mph - N/A   Clear
7:54 PM 28.9 °F 19.8 °F 7.0 °F 40% 30.19 in 10.0 mi NNW 10.4 mph - N/A   Clear
8:54 PM 28.0 °F 18.1 °F 8.1 °F 43% 30.19 in 10.0 mi NNW 11.5 mph - N/A   Clear
9:54 PM 27.0 °F 18.7 °F 8.1 °F 45% 30.18 in 10.0 mi North 8.1 mph - N/A   Clear
10:54 PM 27.0 °F 21.6 °F 9.0 °F 47% 30.19 in 10.0 mi North 4.6 mph - N/A   Clear
11:54 PM 28.0 °F 21.7 °F 7.0 °F 41% 30.19 in 10.0 mi North 5.8 mph - N/A   Clear